Change the Weather History Date:

Sunday, September 15, 2013

  Actual Average (KBJC) Record (KBJC)
Temperature  
Mean Temperature 57 °F -  
Max Temperature 60 °F 74 °F 94 °F (1990)
Min Temperature 54 °F 50 °F 35 °F (1988)
Degree Days  
Heating Degree Days 8    
Growing Degree Days 7 (Base 50)    
Moisture  
Dew Point 56 °F    
Average Humidity 95    
Maximum Humidity 98    
Minimum Humidity 90    
Precipitation  
Precipitation 0.00 in - - ()
Sea Level Pressure  
Sea Level Pressure 30.22 in    
Wind  
Wind Speed 4 mph (NE)    
Max Wind Speed 16 mph    
Max Gust Speed 28 mph    
Visibility 8 miles    
Events Rain , Thunderstorm    
Averages and records for this station are not official NWS values.
T = Trace of Precipitation, MM = Missing Value Source: NWS Daily Summary

Daily Weather History Graph

Daily Weather History Graph

Search for Another Location

Airport or City:

Trip Planner

Search our weather history database for the weather conditions in past years. The results will help you decide how hot, cold, wet, or windy it might be!

Date:

Astronomy

Sep. 15, 2013 Rise Set
Actual Time 6:41 AM MDT 7:08 PM MDT
Civil Twilight 6:14 AM MDT 7:35 PM MDT
Nautical Twilight 5:42 AM MDT 8:07 PM MDT
Astronomical Twilight 5:09 AM MDT 8:40 PM MDT
Moon 4:37 PM MDT (9/15) 2:22 AM MDT (9/15)
Length of Visible Light 13h 21m
Length of Day
12h 26m
Waxing Gibbous, 82% of the Moon is Illuminated
Sep 15
Waxing Gibbous
Sep 19
Full
Sep 26
Last Quarter
Oct 4
New
Oct 11
First Quarter

Hourly Weather History & Observations

Time (MDT) Temp. Dew Point Humidity Pressure Visibility Wind Dir Wind Speed Gust Speed Precip Events Conditions
12:14 AM 60.3 °F 59.0 °F 96% 30.08 in 10.0 mi WNW 4.6 mph - N/A Rain Rain
12:34 AM 60.1 °F 58.8 °F 96% 30.07 in 10.0 mi Calm Calm - N/A Rain Light Rain
12:54 AM 59.9 °F 58.5 °F 95% 30.08 in 10.0 mi NNW 3.5 mph - N/A Rain Light Rain
1:14 AM 59.5 °F 58.1 °F 95% 30.08 in 10.0 mi Calm Calm - N/A   Light Drizzle
1:34 AM 60.1 °F 57.7 °F 92% 30.09 in 10.0 mi Calm Calm - N/A Rain Light Rain
1:54 AM 59.9 °F 58.1 °F 94% 30.10 in 10.0 mi Calm Calm - N/A Rain Light Rain
2:14 AM 59.9 °F 58.3 °F 94% 30.10 in 10.0 mi Calm Calm - N/A   Overcast
2:34 AM 59.9 °F 58.5 °F 95% 30.11 in 10.0 mi Calm Calm - N/A   Overcast
2:54 AM 59.9 °F 58.5 °F 95% 30.10 in 10.0 mi Calm Calm - N/A   Overcast
3:14 AM 60.1 °F 58.3 °F 94% 30.10 in 10.0 mi Calm Calm - N/A   Overcast
3:34 AM 59.9 °F 58.3 °F 94% 30.11 in 10.0 mi Calm Calm - N/A   Overcast
3:54 AM 60.1 °F 58.6 °F 95% 30.12 in 10.0 mi Calm Calm - N/A   Overcast
4:14 AM 59.9 °F 58.5 °F 95% 30.13 in 10.0 mi Calm Calm - N/A   Overcast
4:34 AM 60.1 °F 58.6 °F 95% 30.13 in 10.0 mi Calm Calm - N/A   Overcast
4:54 AM 59.9 °F 58.3 °F 94% 30.14 in 10.0 mi Calm Calm - N/A   Overcast
5:14 AM 59.4 °F 57.6 °F 94% 30.13 in 10.0 mi North 4.6 mph - N/A   Overcast
5:34 AM 59.2 °F 57.4 °F 94% 30.14 in 10.0 mi North 3.5 mph - N/A   Overcast
5:54 AM 59.2 °F 57.7 °F 95% 30.15 in 10.0 mi Calm Calm - N/A   Overcast
6:14 AM 59.5 °F 57.7 °F 94% 30.15 in 10.0 mi Calm Calm - N/A   Overcast
6:34 AM 59.5 °F 57.6 °F 93% 30.16 in 10.0 mi Calm Calm - N/A   Overcast
6:54 AM 59.5 °F 57.6 °F 93% 30.17 in 10.0 mi Calm Calm - N/A   Overcast
7:14 AM 59.9 °F 58.1 °F 94% 30.17 in 10.0 mi Calm Calm - N/A   Overcast
7:34 AM 59.9 °F 58.1 °F 94% 30.18 in 10.0 mi Calm Calm - N/A   Overcast
7:54 AM 60.1 °F 57.7 °F 92% 30.18 in 10.0 mi Calm Calm - N/A   Overcast
8:14 AM 60.3 °F 57.6 °F 91% 30.18 in 10.0 mi Calm Calm - N/A   Overcast
8:34 AM 60.4 °F 57.7 °F 91% 30.19 in 10.0 mi Calm Calm - N/A   Overcast
8:54 AM 60.3 °F 57.4 °F 90% 30.20 in 10.0 mi NE 3.5 mph - N/A   Overcast
9:14 AM 59.7 °F 57.9 °F 94% 30.21 in 4.0 mi NE 4.6 mph - N/A   Drizzle
9:34 AM 59.0 °F 57.7 °F 96% 30.22 in 4.0 mi Calm Calm - N/A Rain Heavy Rain
9:54 AM 58.5 °F 57.4 °F 96% 30.22 in 2.5 mi North 5.8 mph - N/A Rain Heavy Rain
10:14 AM 58.3 °F 57.6 °F 97% 30.22 in 4.0 mi North 8.1 mph - N/A Rain Rain
10:34 AM 58.6 °F 58.1 °F 98% 30.22 in 3.0 mi NNE 16.1 mph 19.6 mph N/A Rain Heavy Rain
10:54 AM 57.9 °F 56.7 °F 96% 30.24 in 10.0 mi North 13.8 mph 21.9 mph N/A Rain Light Rain
11:14 AM 57.4 °F 56.5 °F 97% 30.24 in 1.8 mi NNE 13.8 mph 27.6 mph N/A Rain Heavy Rain
11:34 AM 57.2 °F 56.5 °F 97% 30.25 in 1.0 mi North 12.7 mph - N/A Rain Heavy Rain
11:54 AM 57.0 °F 56.3 °F 97% 30.26 in 1.0 mi NNE 8.1 mph - N/A Rain , Thunderstorm Heavy Thunderstorms and Rain
12:14 PM 57.2 °F 56.3 °F 97% 30.26 in 1.2 mi NNE 8.1 mph - N/A Rain Heavy Rain
12:34 PM 56.5 °F 55.9 °F 98% 30.26 in 2.0 mi North 10.4 mph - N/A Rain Heavy Rain
12:54 PM 56.5 °F 55.9 °F 98% 30.28 in 7.0 mi North 11.5 mph - N/A Rain Rain
1:14 PM 56.5 °F 55.9 °F 98% 30.28 in 4.0 mi NNE 11.5 mph - N/A Rain Heavy Rain
1:34 PM 56.3 °F 55.8 °F 98% 30.28 in 4.0 mi NNE 10.4 mph - N/A Rain Heavy Rain
1:54 PM 56.7 °F 56.1 °F 98% 30.29 in 5.0 mi NE 8.1 mph - N/A Rain Rain
2:14 PM 57.2 °F 56.7 °F 98% 30.28 in 7.0 mi North 8.1 mph - N/A Rain Light Rain
2:34 PM 57.2 °F 56.7 °F 98% 30.28 in 10.0 mi NNE 10.4 mph - N/A Rain Light Rain
2:54 PM 58.1 °F 57.4 °F 97% 30.28 in 10.0 mi NNE 6.9 mph - N/A Rain , Thunderstorm Light Thunderstorms and Rain
3:14 PM 57.6 °F 56.5 °F 96% 30.28 in 10.0 mi NE 5.8 mph - N/A Rain Rain
3:34 PM 57.7 °F 56.5 °F 96% 30.28 in 7.0 mi NE 9.2 mph - N/A Rain Rain
3:54 PM 57.4 °F 56.5 °F 97% 30.28 in 2.0 mi ENE 4.6 mph - N/A Rain Heavy Rain
4:14 PM 57.4 °F 56.5 °F 97% 30.28 in 3.0 mi NE 5.8 mph - N/A   Heavy Drizzle
4:34 PM 57.2 °F 56.1 °F 96% 30.28 in 5.0 mi East 5.8 mph - N/A   Overcast
4:54 PM 58.1 °F 56.3 °F 94% 30.28 in 7.0 mi ENE 4.6 mph - N/A   Overcast
5:14 PM 57.4 °F 55.8 °F 94% 30.28 in 3.0 mi East 8.1 mph - N/A Rain Light Rain
5:34 PM 56.5 °F 55.2 °F 96% 30.29 in 2.0 mi East 8.1 mph - N/A   Light Drizzle
5:54 PM 56.3 °F 55.0 °F 96% 30.29 in 4.0 mi East 9.2 mph - N/A   Overcast
6:14 PM 56.3 °F 54.5 °F 94% 30.30 in 10.0 mi East 5.8 mph - N/A   Overcast
6:34 PM 56.5 °F 54.7 °F 94% 30.29 in 5.0 mi East 3.5 mph - N/A   Overcast
6:54 PM 56.5 °F 54.1 °F 92% 30.29 in 10.0 mi East 4.6 mph - N/A   Overcast
7:14 PM 56.3 °F 54.5 °F 94% 30.29 in 10.0 mi East 5.8 mph - N/A   Overcast
7:34 PM 56.3 °F 54.5 °F 94% 30.30 in 10.0 mi ESE 5.8 mph - N/A   Overcast
7:54 PM 56.3 °F 54.0 °F 92% 30.31 in 10.0 mi East 5.8 mph - N/A   Overcast
8:14 PM 55.6 °F 53.6 °F 93% 30.31 in 10.0 mi East 9.2 mph - N/A   Overcast
8:34 PM 54.9 °F 53.2 °F 94% 30.32 in 7.0 mi East 5.8 mph - N/A   Overcast
8:54 PM 54.9 °F 53.1 °F 94% 30.32 in 10.0 mi East 6.9 mph - N/A   Overcast
9:14 PM 54.9 °F 53.1 °F 94% 30.32 in 10.0 mi East 4.6 mph - N/A   Overcast
9:34 PM 55.0 °F 53.6 °F 95% 30.32 in 10.0 mi Calm Calm - N/A   Overcast
9:54 PM 55.4 °F 54.0 °F 95% 30.32 in 10.0 mi Calm Calm - N/A   Overcast
10:14 PM 55.4 °F 54.0 °F 95% 30.31 in 10.0 mi East 4.6 mph - N/A   Overcast
10:34 PM 55.4 °F 54.1 °F 96% 30.31 in 10.0 mi Calm Calm - N/A   Overcast
10:54 PM 55.6 °F 54.3 °F 96% 30.31 in 10.0 mi East 3.5 mph - N/A   Overcast
11:14 PM 55.6 °F 54.5 °F 96% 30.31 in 5.0 mi ESE 4.6 mph - N/A   Overcast
11:34 PM 55.6 °F 54.5 °F 96% 30.31 in 5.0 mi ESE 3.5 mph - N/A   Overcast
11:54 PM 55.6 °F 54.5 °F 96% 30.30 in 5.0 mi East 5.8 mph - N/A   Overcast